Location: Palomar Mountain Lodge
(33.3110°N, 116.8495°W)
Time: 00:56:14
(UTC-07:00)

Aureole 3 Rocket - Pass Details

Date: 12 July 2018
Orbit: 400 x 1742 km, 82.5° (Epoch: 23 September)

Event Time Altitude Azimuth Distance (km) Brightness Sun altitude
Rises 20:32:47 0° 180° (S) 3,463 6.6 -7.0°
Reaches altitude 10° 20:35:35 10° 178° (S) 2,312 5.7 -7.5°
Maximum altitude 20:40:32 69° 96° (E) 650 3.0 -8.4°
Drops below altitude 10° 20:44:13 10° 13° (NNE) 1,724 5.6 -9.0°
Sets 20:46:03 0° 10° (N) 2,508 6.5 -9.4°
